Terug naar catalogus

FENGYUN 1C DEB

ActiefSSO
NORAD 29805·DEBRIS·🇨🇳 China

Gelanceerd May 10, 1999 vanaf Taiyuan Satellite Launch Center

Loading…

Volgende Passages (komende 24 uur)

TLE

VersSource: Space-Track

Epoch: Sep 14, 2026, 01:32 UTC

1 29805U 99025CX  26257.06433449  .00000087  00000-0  12670-3 0  9998
2 29805  99.4173 309.2787 0187668 232.6170 125.7762 13.72734901984808

Volg FENGYUN 1C DEB in realtime met AllMySat

Download on the App Store